Погода в Печенегах

Украина / Харьковская область     49°51′52″N   36°55′56″E
темп.,
°C
ветер,
м/с
пор.,
м/с
влажн.,
%
обл.,
%
осадки,
мм/ч
давл.,
гПа
погр.,
м
15 апреля, чт
чт1500:00+11юз468367 0.0 1015298
03:00+8юз358717 0.0 1015116
06:00+7ююз35905 0.0 1015101
09:00+10ю566595 0.0 1015597
12:00+13ю566473 0.0 10141173
15:00+13ю456272 0.2 1013931
18:00+12ююз7117764 2.5 10131043
21:00+8ю378674 2.6 1014220
16 апреля, пт
пт1600:00+8юв368579 0.1 1014220
03:00+7ююв498860 0.2 1014319
06:00+5ююв499424 0.0 1015293
09:00+8ю5682100 0.0 1016548
12:00+10ю576897 0.1 10171101
15:00+12ю5656100 0.3 10171413
18:00+11ю356394 0.3 1017963
21:00+9ююз497793 0.6 1018398
17 апреля, сб
сб1700:00+7ююв3787100 0.2 1018165
03:00+6ю369060 0.3 1018116
06:00+6ююз2391100 0.0 1019157
09:00+8зюз457352 0.0 1020705
12:00+11зюз435249 0.1 10201694
15:00+13юз444459 0.1 10201894
18:00+11зюз776017 0.0 1020993
21:00+7зюз48816 0.1 1021259
18 апреля, вс
вс1800:00+7зюз3580100 0.0 1021243
03:00+7з477812 0.0 1020356
06:00+4зюз38885 0.0 1019230
09:00+9зюз69669 0.0 1018972
12:00+13з795283 0.0 10171490
15:00+9зсз6975100 0.0 1017696
18:00+10ссз5673100 0.1 1017826
21:00+6ссз478691 0.1 1019347
19 апреля, пн
пн1900:00+7ссв3786100 0.0 1019468
03:00+6ссв488938 0.0 1018229
06:00+4св3109512 0.0 1019290
09:00+10всв686942 0.0 1019870
12:00+13св675489 0.0 10191573
15:00+13св785595 0.1 10181471
18:00+11всв796797 0.0 10191201
21:00+8св71281100 0.0 1018525